Location: Felsheim
(48.7267°N, 10.7386°E)
Time: 09:30:46
(UTC+00:00)

Landsat 7 - Pass Details

Date: 09 April 2020
Orbit: 701 x 703 km, 98.1° (Epoch: 25 May)

Event Time Altitude Azimuth Distance (km) Brightness Sun altitude
Exits shadow 19:46:16 29° 113° (ESE) 1,272 4.6 -16.8°
Maximum altitude 19:48:00 40° 68° (ENE) 1,031 4.4 -17.0°
Drops below altitude 10° 19:52:27 10° 359° (N) 2,183 6.8 -17.6°
Sets 19:54:49 0° 352° (N) 3,106 7.8 -17.9°
